Time,TemperatureF,DewpointF,PressureIn,WindDirection,WindDirectionDegrees,WindSpeedMPH,WindSpeedGustMPH,Humidity,HourlyPrecipIn,Conditions,Clouds,dailyrainin,SoftwareType,DateUTC
2013-03-05 00:00:00,25.3,18.8,30.09,West,262,0.0,0.0,76,0.00,,,0.00,Wunderground v.1.15,2013-03-05 05:00:00,
2013-03-05 00:09:00,25.7,18.9,30.09,West,262,0.0,0.0,75,0.00,,,0.00,Wunderground v.1.15,2013-03-05 05:09:00,
2013-03-05 00:15:00,25.8,19.3,30.09,West,262,0.0,1.0,76,0.00,,,0.00,Wunderground v.1.15,2013-03-05 05:15:00,
2013-03-05 00:20:00,26.1,19.3,30.09,West,262,1.0,1.0,75,0.00,,,0.00,Wunderground v.1.15,2013-03-05 05:20:00,
2013-03-05 00:25:00,26.4,19.2,30.09,West,262,1.0,1.0,74,0.00,,,0.00,Wunderground v.1.15,2013-03-05 05:25:00,
2013-03-05 00:29:00,26.6,19.7,30.09,West,262,1.0,1.0,75,0.00,,,0.00,Wunderground v.1.15,2013-03-05 05:29:00,
2013-03-05 00:35:00,26.5,20.6,30.09,SW,232,1.0,1.0,78,0.00,,,0.00,Wunderground v.1.15,2013-03-05 05:35:00,
2013-03-05 00:40:00,26.6,20.4,30.08,East,99,1.0,1.0,77,0.00,,,0.00,Wunderground v.1.15,2013-03-05 05:40:00,
2013-03-05 00:45:00,26.8,20.6,30.08,East,92,1.0,3.0,77,0.00,,,0.00,Wunderground v.1.15,2013-03-05 05:45:00,
2013-03-05 00:50:00,27.2,20.3,30.08,ENE,77,1.0,1.0,75,0.00,,,0.00,Wunderground v.1.15,2013-03-05 05:50:00,
2013-03-05 00:54:00,27.3,20.4,30.08,WNW,288,1.0,1.0,75,0.00,,,0.00,Wunderground v.1.15,2013-03-05 05:54:00,
2013-03-05 01:00:00,27.3,20.4,30.07,WNW,288,0.0,0.0,75,0.00,,,0.00,Wunderground v.1.15,2013-03-05 06:00:00,
2013-03-05 01:05:00,27.3,20.4,30.07,WNW,288,0.0,0.0,75,0.00,,,0.00,Wunderground v.1.15,2013-03-05 06:05:00,
2013-03-05 01:10:00,27.3,20.4,30.08,West,262,0.0,0.0,75,0.00,,,0.00,Wunderground v.1.15,2013-03-05 06:10:00,
2013-03-05 01:15:00,27.3,20.7,30.08,WSW,239,1.0,4.0,76,0.00,,,0.00,Wunderground v.1.15,2013-03-05 06:15:00,
2013-03-05 01:20:00,27.4,21.4,30.08,WSW,257,2.0,2.0,78,0.00,,,0.00,Wunderground v.1.15,2013-03-05 06:20:00,
2013-03-05 01:25:00,27.6,20.7,30.09,WSW,242,2.0,2.0,75,0.00,,,0.00,Wunderground v.1.15,2013-03-05 06:25:00,
2013-03-05 01:30:00,27.7,20.8,30.09,WSW,245,2.0,2.0,75,0.00,,,0.00,Wunderground v.1.15,2013-03-05 06:30:00,
2013-03-05 01:35:00,28.0,20.5,30.09,WSW,257,2.0,2.0,73,0.00,,,0.00,Wunderground v.1.15,2013-03-05 06:35:00,
2013-03-05 01:40:00,28.4,20.5,30.10,WSW,239,2.0,2.0,72,0.00,,,0.00,Wunderground v.1.15,2013-03-05 06:40:00,
2013-03-05 01:45:00,28.7,20.5,30.10,West,259,1.0,2.0,71,0.00,,,0.00,Wunderground v.1.15,2013-03-05 06:45:00,
2013-03-05 01:50:00,28.7,20.8,30.10,WSW,258,1.0,1.0,72,0.00,,,0.00,Wunderground v.1.15,2013-03-05 06:50:00,
2013-03-05 01:55:00,28.8,20.6,30.10,ESE,110,1.0,2.0,71,0.00,,,0.00,Wunderground v.1.15,2013-03-05 06:55:00,
2013-03-05 02:00:00,28.5,21.3,30.10,ESE,113,2.0,2.0,74,0.00,,,0.00,Wunderground v.1.15,2013-03-05 07:00:00,
2013-03-05 02:05:00,28.3,21.4,30.10,ESE,105,1.0,2.0,75,0.00,,,0.00,Wunderground v.1.15,2013-03-05 07:05:00,
2013-03-05 02:10:00,28.2,21.3,30.10,ESE,105,1.0,1.0,75,0.00,,,0.00,Wunderground v.1.15,2013-03-05 07:10:00,
2013-03-05 02:15:00,28.2,21.3,30.10,ESE,114,1.0,1.0,75,0.00,,,0.00,Wunderground v.1.15,2013-03-05 07:15:00,
2013-03-05 02:20:00,28.2,21.3,30.10,ESE,113,1.0,1.0,75,0.00,,,0.00,Wunderground v.1.15,2013-03-05 07:20:00,
2013-03-05 02:25:00,28.1,21.2,30.10,ESE,113,1.0,1.0,75,0.00,,,0.00,Wunderground v.1.15,2013-03-05 07:25:00,
2013-03-05 02:30:00,28.1,21.2,30.10,ESE,113,0.0,0.0,75,0.00,,,0.00,Wunderground v.1.15,2013-03-05 07:30:00,
2013-03-05 02:35:00,28.1,20.9,30.10,ESE,113,0.0,0.0,74,0.00,,,0.00,Wunderground v.1.15,2013-03-05 07:35:00,
2013-03-05 02:40:00,28.2,21.0,30.10,ESE,113,0.0,0.0,74,0.00,,,0.00,Wunderground v.1.15,2013-03-05 07:40:00,
2013-03-05 02:45:00,28.2,21.0,30.10,ESE,113,0.0,0.0,74,0.00,,,0.00,Wunderground v.1.15,2013-03-05 07:45:00,
2013-03-05 02:50:00,28.3,21.1,30.09,ESE,113,0.0,0.0,74,0.00,,,0.00,Wunderground v.1.15,2013-03-05 07:50:00,
2013-03-05 02:55:00,28.4,21.2,30.09,ESE,113,0.0,0.0,74,0.00,,,0.00,Wunderground v.1.15,2013-03-05 07:55:00,
2013-03-05 03:00:00,28.4,21.2,30.09,ESE,113,0.0,0.0,74,0.00,,,0.00,Wunderground v.1.15,2013-03-05 08:00:00,
2013-03-05 03:05:00,28.3,21.1,30.09,ESE,113,0.0,0.0,74,0.00,,,0.00,Wunderground v.1.15,2013-03-05 08:05:00,
2013-03-05 03:10:00,28.3,20.7,30.09,ESE,113,0.0,0.0,73,0.00,,,0.00,Wunderground v.1.15,2013-03-05 08:10:00,
2013-03-05 03:15:00,28.4,21.2,30.09,South,169,0.0,0.0,74,0.00,,,0.00,Wunderground v.1.15,2013-03-05 08:15:00,
2013-03-05 03:20:00,28.6,21.4,30.09,South,176,0.0,0.0,74,0.00,,,0.00,Wunderground v.1.15,2013-03-05 08:20:00,
2013-03-05 03:25:00,28.6,21.7,30.09,SSW,198,0.0,0.0,75,0.00,,,0.00,Wunderground v.1.15,2013-03-05 08:25:00,
2013-03-05 03:30:00,28.6,22.3,30.09,WSW,250,0.0,0.0,77,0.00,,,0.00,Wunderground v.1.15,2013-03-05 08:30:00,
2013-03-05 03:35:00,28.6,22.3,30.09,WSW,257,0.0,0.0,77,0.00,,,0.00,Wunderground v.1.15,2013-03-05 08:35:00,
2013-03-05 03:40:00,28.7,22.4,30.09,WSW,257,0.0,0.0,77,0.00,,,0.00,Wunderground v.1.15,2013-03-05 08:40:00,
2013-03-05 03:45:00,28.7,22.4,30.09,WSW,255,0.0,0.0,77,0.00,,,0.00,Wunderground v.1.15,2013-03-05 08:45:00,
2013-03-05 03:50:00,28.7,21.8,30.09,West,262,0.0,0.0,75,0.00,,,0.00,Wunderground v.1.15,2013-03-05 08:50:00,
2013-03-05 03:55:00,28.8,22.2,30.09,West,262,0.0,0.0,76,0.00,,,0.00,Wunderground v.1.15,2013-03-05 08:55:00,
2013-03-05 04:00:00,28.8,22.2,30.08,West,262,0.0,0.0,76,0.00,,,0.00,Wunderground v.1.15,2013-03-05 09:00:00,
2013-03-05 04:04:00,28.7,21.8,30.08,West,262,0.0,0.0,75,0.00,,,0.00,Wunderground v.1.15,2013-03-05 09:04:00,
2013-03-05 04:09:00,28.8,21.9,30.08,West,262,0.0,0.0,75,0.00,,,0.00,Wunderground v.1.15,2013-03-05 09:09:00,
2013-03-05 04:14:00,28.8,21.9,30.08,West,262,0.0,0.0,75,0.00,,,0.00,Wunderground v.1.15,2013-03-05 09:14:00,
2013-03-05 04:19:00,28.8,21.9,30.08,West,262,0.0,0.0,75,0.00,,,0.00,Wunderground v.1.15,2013-03-05 09:19:00,
2013-03-05 04:24:00,28.8,21.6,30.08,West,262,0.0,0.0,74,0.00,,,0.00,Wunderground v.1.15,2013-03-05 09:24:00,
2013-03-05 04:29:00,28.9,21.7,30.08,West,262,0.0,0.0,74,0.00,,,0.00,Wunderground v.1.15,2013-03-05 09:29:00,
2013-03-05 04:35:00,28.9,21.7,30.08,West,262,0.0,0.0,74,0.00,,,0.00,Wunderground v.1.15,2013-03-05 09:35:00,
2013-03-05 04:40:00,28.9,22.0,30.08,West,262,0.0,0.0,75,0.00,,,0.00,Wunderground v.1.15,2013-03-05 09:40:00,
2013-03-05 04:45:00,29.0,22.1,30.08,West,261,0.0,0.0,75,0.00,,,0.00,Wunderground v.1.15,2013-03-05 09:45:00,
2013-03-05 04:50:00,29.0,22.4,30.08,West,262,0.0,0.0,76,0.00,,,0.00,Wunderground v.1.15,2013-03-05 09:50:00,
2013-03-05 04:55:00,29.1,22.5,30.08,SSW,213,0.0,0.0,76,0.00,,,0.00,Wunderground v.1.15,2013-03-05 09:55:00,
2013-03-05 05:00:00,29.1,22.5,30.08,SSW,213,0.0,0.0,76,0.00,,,0.00,Wunderground v.1.15,2013-03-05 10:00:00,
2013-03-05 05:05:00,29.2,22.3,30.08,SSW,197,0.0,0.0,75,0.00,,,0.00,Wunderground v.1.15,2013-03-05 10:05:00,
2013-03-05 05:10:00,29.2,22.6,30.08,SSW,197,0.0,0.0,76,0.00,,,0.00,Wunderground v.1.15,2013-03-05 10:10:00,
2013-03-05 05:20:00,29.2,22.3,30.08,SSW,198,0.0,0.0,75,0.00,,,0.00,Wunderground v.1.15,2013-03-05 10:20:00,
2013-03-05 05:25:00,29.2,22.3,30.09,SSW,197,0.0,0.0,75,0.00,,,0.00,Wunderground v.1.15,2013-03-05 10:25:00,
2013-03-05 05:30:00,29.2,22.3,30.08,SSW,197,0.0,0.0,75,0.00,,,0.00,Wunderground v.1.15,2013-03-05 10:30:00,
2013-03-05 05:35:00,29.3,22.4,30.08,SE,135,0.0,0.0,75,0.00,,,0.00,Wunderground v.1.15,2013-03-05 10:35:00,
2013-03-05 05:40:00,29.4,22.5,30.08,SE,136,0.0,0.0,75,0.00,,,0.00,Wunderground v.1.15,2013-03-05 10:40:00,
2013-03-05 05:45:00,29.5,22.2,30.08,SE,135,0.0,0.0,74,0.00,,,0.00,Wunderground v.1.15,2013-03-05 10:45:00,
2013-03-05 05:50:00,29.5,22.6,30.09,WSW,238,0.0,0.0,75,0.00,,,0.00,Wunderground v.1.15,2013-03-05 10:50:00,
2013-03-05 05:55:00,29.6,22.6,30.09,WSW,238,0.0,0.0,75,0.00,,,0.00,Wunderground v.1.15,2013-03-05 10:55:00,
2013-03-05 06:00:00,29.6,23.3,30.08,WSW,238,0.0,0.0,77,0.00,,,0.00,Wunderground v.1.15,2013-03-05 11:00:00,
2013-03-05 06:05:00,29.6,22.6,30.08,West,278,0.0,3.0,75,0.00,,,0.00,Wunderground v.1.15,2013-03-05 11:05:00,
2013-03-05 06:10:00,29.7,22.4,30.09,WNW,285,1.0,2.0,74,0.00,,,0.00,Wunderground v.1.15,2013-03-05 11:10:00,
2013-03-05 06:15:00,29.8,22.8,30.09,West,268,2.0,2.0,75,0.00,,,0.00,Wunderground v.1.15,2013-03-05 11:15:00,
2013-03-05 06:20:00,29.9,22.9,30.09,WSW,252,2.0,2.0,75,0.00,,,0.00,Wunderground v.1.15,2013-03-05 11:20:00,
2013-03-05 06:25:00,30.1,23.1,30.09,WSW,251,2.0,2.0,75,0.00,,,0.00,Wunderground v.1.15,2013-03-05 11:25:00,
2013-03-05 06:30:00,30.2,23.2,30.09,West,266,2.0,2.0,75,0.00,,,0.00,Wunderground v.1.15,2013-03-05 11:30:00,
2013-03-05 06:35:00,30.2,23.5,30.09,West,266,1.0,2.0,76,0.00,,,0.00,Wunderground v.1.15,2013-03-05 11:35:00,
2013-03-05 06:40:00,30.2,23.5,30.09,West,266,1.0,1.0,76,0.00,,,0.00,Wunderground v.1.15,2013-03-05 11:40:00,
2013-03-05 06:45:00,30.3,23.6,30.10,West,266,0.0,1.0,76,0.00,,,0.00,Wunderground v.1.15,2013-03-05 11:45:00,
2013-03-05 06:50:00,30.4,24.1,30.09,ESE,105,0.0,1.0,77,0.00,,,0.00,Wunderground v.1.15,2013-03-05 11:50:00,
2013-03-05 06:55:00,30.5,23.8,30.09,East,101,1.0,2.0,76,0.00,,,0.00,Wunderground v.1.15,2013-03-05 11:55:00,
2013-03-05 07:00:00,30.5,24.1,30.10,SE,137,2.0,2.0,77,0.00,,,0.00,Wunderground v.1.15,2013-03-05 12:00:00,
2013-03-05 07:05:00,30.6,23.9,30.10,ESE,113,2.0,3.0,76,0.00,,,0.00,Wunderground v.1.15,2013-03-05 12:05:00,
2013-03-05 07:10:00,30.7,23.4,30.10,SSE,162,2.0,2.0,74,0.00,,,0.00,Wunderground v.1.15,2013-03-05 12:10:00,
2013-03-05 07:15:00,30.9,23.3,30.10,South,173,2.0,2.0,73,0.00,,,0.00,Wunderground v.1.15,2013-03-05 12:15:00,
2013-03-05 07:20:00,31.0,23.0,30.10,East,91,1.0,1.0,72,0.00,,,0.00,Wunderground v.1.15,2013-03-05 12:20:00,
2013-03-05 07:25:00,31.2,23.9,30.09,ESE,110,1.0,1.0,74,0.00,,,0.00,Wunderground v.1.15,2013-03-05 12:25:00,
2013-03-05 07:30:00,31.2,24.2,30.09,ESE,120,1.0,1.0,75,0.00,,,0.00,Wunderground v.1.15,2013-03-05 12:30:00,
2013-03-05 07:35:00,31.2,24.2,30.09,ESE,117,1.0,1.0,75,0.00,,,0.00,Wunderground v.1.15,2013-03-05 12:35:00,
2013-03-05 07:40:00,31.4,24.1,30.09,South,181,1.0,1.0,74,0.00,,,0.00,Wunderground v.1.15,2013-03-05 12:40:00,
2013-03-05 07:45:00,31.6,23.9,30.09,SE,134,0.0,1.0,73,0.00,,,0.00,Wunderground v.1.15,2013-03-05 12:45:00,
2013-03-05 07:50:00,31.8,23.5,30.09,ESE,123,1.0,1.0,71,0.00,,,0.00,Wunderground v.1.15,2013-03-05 12:50:00,
2013-03-05 07:55:00,32.2,22.8,30.08,SSW,200,1.0,2.0,68,0.00,,,0.00,Wunderground v.1.15,2013-03-05 12:55:00,
2013-03-05 08:00:00,32.6,23.9,30.08,SSW,210,1.0,1.0,70,0.00,,,0.00,Wunderground v.1.15,2013-03-05 13:00:00,
2013-03-05 08:05:00,33.0,23.9,30.08,WSW,252,1.0,1.0,69,0.00,,,0.00,Wunderground v.1.15,2013-03-05 13:05:00,
2013-03-05 08:10:00,33.3,23.9,30.08,West,266,2.0,2.0,68,0.00,,,0.00,Wunderground v.1.15,2013-03-05 13:10:00,
2013-03-05 08:15:00,33.6,24.5,30.08,WSW,255,2.0,2.0,69,0.00,,,0.00,Wunderground v.1.15,2013-03-05 13:15:00,
2013-03-05 08:20:00,33.9,23.7,30.08,WSW,248,2.0,2.0,66,0.00,,,0.00,Wunderground v.1.15,2013-03-05 13:20:00,
2013-03-05 08:25:00,34.3,24.5,30.08,West,262,1.0,2.0,67,0.00,,,0.00,Wunderground v.1.15,2013-03-05 13:25:00,
2013-03-05 08:30:00,34.6,24.4,30.08,WSW,250,1.0,2.0,66,0.00,,,0.00,Wunderground v.1.15,2013-03-05 13:30:00,
2013-03-05 08:35:00,35.1,24.5,30.08,WSW,252,2.0,2.0,65,0.00,,,0.00,Wunderground v.1.15,2013-03-05 13:35:00,
2013-03-05 08:39:00,35.5,23.8,30.08,West,271,2.0,3.0,62,0.00,,,0.00,Wunderground v.1.15,2013-03-05 13:39:00,
2013-03-05 08:44:00,35.9,23.0,30.07,WSW,255,2.0,3.0,59,0.00,,,0.00,Wunderground v.1.15,2013-03-05 13:44:00,
2013-03-05 08:49:00,36.6,23.2,30.07,West,273,1.0,1.0,58,0.00,,,0.00,Wunderground v.1.15,2013-03-05 13:49:00,
2013-03-05 08:54:00,37.3,22.6,30.07,WSW,245,1.0,1.0,55,0.00,,,0.00,Wunderground v.1.15,2013-03-05 13:54:00,
2013-03-05 08:59:00,37.8,22.6,30.07,WSW,245,1.0,1.0,54,0.00,,,0.00,Wunderground v.1.15,2013-03-05 13:59:00,
2013-03-05 09:04:00,38.7,22.1,30.07,WSW,243,1.0,1.0,51,0.00,,,0.00,Wunderground v.1.15,2013-03-05 14:04:00,
2013-03-05 09:09:00,39.1,21.5,30.06,WSW,239,1.0,1.0,49,0.00,,,0.00,Wunderground v.1.15,2013-03-05 14:09:00,
2013-03-05 09:14:00,39.4,21.8,30.06,SW,235,1.0,1.0,49,0.00,,,0.00,Wunderground v.1.15,2013-03-05 14:14:00,
2013-03-05 09:19:00,40.0,20.9,30.06,West,274,1.0,1.0,46,0.00,,,0.00,Wunderground v.1.15,2013-03-05 14:19:00,
2013-03-05 09:24:00,40.4,20.7,30.06,SW,234,2.0,2.0,45,0.00,,,0.00,Wunderground v.1.15,2013-03-05 14:24:00,
2013-03-05 09:29:00,40.7,20.5,30.06,WSW,242,1.0,1.0,44,0.00,,,0.00,Wunderground v.1.15,2013-03-05 14:29:00,
2013-03-05 09:34:00,41.0,18.5,30.06,SSW,210,1.0,3.0,40,0.00,,,0.00,Wunderground v.1.15,2013-03-05 14:34:00,
2013-03-05 09:39:00,41.3,19.3,30.06,SE,129,2.0,2.0,41,0.00,,,0.00,Wunderground v.1.15,2013-03-05 14:39:00,
2013-03-05 09:44:00,41.8,19.2,30.06,SSW,200,1.0,2.0,40,0.00,,,0.00,Wunderground v.1.15,2013-03-05 14:44:00,
2013-03-05 09:49:00,41.7,19.7,30.06,WSW,254,2.0,2.0,41,0.00,,,0.00,Wunderground v.1.15,2013-03-05 14:49:00,
2013-03-05 09:54:00,41.8,19.8,30.05,WSW,255,2.0,2.0,41,0.00,,,0.00,Wunderground v.1.15,2013-03-05 14:54:00,
2013-03-05 09:59:00,41.8,19.8,30.05,NNE,16,1.0,1.0,41,0.00,,,0.00,Wunderground v.1.15,2013-03-05 14:59:00,
2013-03-05 10:04:00,42.0,18.8,30.05,West,267,1.0,1.0,39,0.00,,,0.00,Wunderground v.1.15,2013-03-05 15:04:00,
2013-03-05 10:09:00,42.3,17.8,30.05,SSE,155,1.0,1.0,37,0.00,,,0.00,Wunderground v.1.15,2013-03-05 15:09:00,
2013-03-05 10:15:00,42.7,19.4,30.05,SSW,205,2.0,3.0,39,0.00,,,0.00,Wunderground v.1.15,2013-03-05 15:15:00,
2013-03-05 10:20:00,43.1,20.4,30.05,East,100,1.0,3.0,40,0.00,,,0.00,Wunderground v.1.15,2013-03-05 15:20:00,
2013-03-05 10:25:00,43.0,19.7,30.05,SE,132,2.0,3.0,39,0.00,,,0.00,Wunderground v.1.15,2013-03-05 15:25:00,
2013-03-05 10:30:00,42.9,19.6,30.04,ESE,117,2.0,3.0,39,0.00,,,0.00,Wunderground v.1.15,2013-03-05 15:30:00,
2013-03-05 10:34:00,43.6,19.0,30.05,SSW,205,1.0,3.0,37,0.00,,,0.00,Wunderground v.1.15,2013-03-05 15:34:00,
2013-03-05 10:39:00,44.4,18.4,30.04,SSW,195,2.0,3.0,35,0.00,,,0.00,Wunderground v.1.15,2013-03-05 15:39:00,
2013-03-05 10:44:00,44.1,18.2,30.04,East,86,3.0,3.0,35,0.00,,,0.00,Wunderground v.1.15,2013-03-05 15:44:00,
2013-03-05 10:49:00,44.5,19.2,30.04,SE,132,3.0,4.0,36,0.00,,,0.00,Wunderground v.1.15,2013-03-05 15:49:00,
2013-03-05 10:54:00,44.6,19.3,30.03,WSW,250,2.0,4.0,36,0.00,,,0.00,Wunderground v.1.15,2013-03-05 15:54:00,
2013-03-05 10:59:00,45.2,18.5,30.03,SE,146,2.0,2.0,34,0.00,,,0.00,Wunderground v.1.15,2013-03-05 15:59:00,
2013-03-05 11:04:00,45.4,19.3,30.03,SSW,195,2.0,2.0,35,0.00,,,0.00,Wunderground v.1.15,2013-03-05 16:04:00,
2013-03-05 11:10:00,45.3,19.2,30.02,ESE,120,2.0,3.0,35,0.00,,,0.00,Wunderground v.1.15,2013-03-05 16:10:00,
2013-03-05 11:15:00,45.5,19.4,30.02,WSW,252,2.0,3.0,35,0.00,,,0.00,Wunderground v.1.15,2013-03-05 16:15:00,
2013-03-05 11:25:00,46.6,19.7,30.01,West,271,2.0,2.0,34,0.00,,,0.00,Wunderground v.1.15,2013-03-05 16:25:00,
2013-03-05 11:30:00,46.4,19.5,30.01,NNE,12,2.0,2.0,34,0.00,,,0.00,Wunderground v.1.15,2013-03-05 16:30:00,
2013-03-05 11:35:00,46.4,21.5,30.01,NW,309,2.0,2.0,37,0.00,,,0.00,Wunderground v.1.15,2013-03-05 16:35:00,
2013-03-05 11:40:00,47.2,20.2,30.00,SW,222,1.0,1.0,34,0.00,,,0.00,Wunderground v.1.15,2013-03-05 16:40:00,
2013-03-05 11:45:00,47.6,20.6,30.00,SE,145,2.0,2.0,34,0.00,,,0.00,Wunderground v.1.15,2013-03-05 16:45:00,
2013-03-05 11:50:00,48.1,23.0,30.00,ESE,115,2.0,2.0,37,0.00,,,0.00,Wunderground v.1.15,2013-03-05 16:50:00,
2013-03-05 11:55:00,48.1,21.0,30.00,SW,222,2.0,2.0,34,0.00,,,0.00,Wunderground v.1.15,2013-03-05 16:55:00,
2013-03-05 11:59:00,48.5,22.1,30.00,East,82,2.0,2.0,35,0.00,,,0.00,Wunderground v.1.15,2013-03-05 16:59:00,
2013-03-05 12:05:00,48.6,22.1,30.00,WSW,246,1.0,2.0,35,0.00,,,0.00,Wunderground v.1.15,2013-03-05 17:05:00,
2013-03-05 12:14:00,48.9,22.4,29.99,East,101,2.0,2.0,35,0.00,,,0.00,Wunderground v.1.15,2013-03-05 17:14:00,
2013-03-05 12:19:00,48.7,22.2,29.99,NE,35,2.0,2.0,35,0.00,,,0.00,Wunderground v.1.15,2013-03-05 17:19:00,
2013-03-05 12:25:00,49.4,22.9,29.98,SSW,198,2.0,3.0,35,0.00,,,0.00,Wunderground v.1.15,2013-03-05 17:25:00,
2013-03-05 12:30:00,49.5,22.3,29.98,West,263,2.0,3.0,34,0.00,,,0.00,Wunderground v.1.15,2013-03-05 17:30:00,
2013-03-05 12:35:00,48.8,21.6,29.98,West,276,2.0,3.0,34,0.00,,,0.00,Wunderground v.1.15,2013-03-05 17:35:00,
2013-03-05 12:40:00,48.8,23.0,29.98,SSW,204,2.0,3.0,36,0.00,,,0.00,Wunderground v.1.15,2013-03-05 17:40:00,
2013-03-05 12:45:00,49.3,22.8,29.98,SE,145,2.0,3.0,35,0.00,,,0.00,Wunderground v.1.15,2013-03-05 17:45:00,
2013-03-05 12:50:00,49.4,22.2,29.97,SSW,195,3.0,3.0,34,0.00,,,0.00,Wunderground v.1.15,2013-03-05 17:50:00,
2013-03-05 12:55:00,49.7,22.4,29.97,SSW,195,3.0,3.0,34,0.00,,,0.00,Wunderground v.1.15,2013-03-05 17:55:00,
2013-03-05 13:00:00,50.1,22.1,29.96,East,96,1.0,2.0,33,0.00,,,0.00,Wunderground v.1.15,2013-03-05 18:00:00,
2013-03-05 13:05:00,49.6,21.6,29.96,East,97,2.0,3.0,33,0.00,,,0.00,Wunderground v.1.15,2013-03-05 18:05:00,
2013-03-05 13:09:00,49.3,22.1,29.96,ENE,73,2.0,2.0,34,0.00,,,0.00,Wunderground v.1.15,2013-03-05 18:09:00,
2013-03-05 13:14:00,49.4,22.2,29.95,NW,316,1.0,2.0,34,0.00,,,0.00,Wunderground v.1.15,2013-03-05 18:14:00,
2013-03-05 13:19:00,49.8,23.2,29.95,SSE,153,1.0,1.0,35,0.00,,,0.00,Wunderground v.1.15,2013-03-05 18:19:00,
2013-03-05 13:24:00,50.1,23.5,29.94,NNE,26,1.0,2.0,35,0.00,,,0.00,Wunderground v.1.15,2013-03-05 18:24:00,
2013-03-05 13:29:00,50.0,22.7,29.94,NE,53,2.0,4.0,34,0.00,,,0.00,Wunderground v.1.15,2013-03-05 18:29:00,
2013-03-05 13:34:00,49.8,23.9,29.94,ENE,72,2.0,4.0,36,0.00,,,0.00,Wunderground v.1.15,2013-03-05 18:34:00,
2013-03-05 13:39:00,50.1,23.5,29.93,WSW,255,1.0,1.0,35,0.00,,,0.00,Wunderground v.1.15,2013-03-05 18:39:00,
2013-03-05 13:44:00,50.3,23.7,29.93,NNW,328,1.0,2.0,35,0.00,,,0.00,Wunderground v.1.15,2013-03-05 18:44:00,
2013-03-05 13:49:00,50.3,25.0,29.93,NNE,25,2.0,2.0,37,0.00,,,0.00,Wunderground v.1.15,2013-03-05 18:49:00,
2013-03-05 13:54:00,50.3,23.0,29.92,NNE,15,2.0,3.0,34,0.00,,,0.00,Wunderground v.1.15,2013-03-05 18:54:00,
2013-03-05 14:00:00,50.8,24.8,29.92,North,7,3.0,3.0,36,0.00,,,0.00,Wunderground v.1.15,2013-03-05 19:00:00,
2013-03-05 14:04:00,51.2,23.0,29.92,NW,318,2.0,4.0,33,0.00,,,0.00,Wunderground v.1.15,2013-03-05 19:04:00,
2013-03-05 14:09:00,51.5,25.4,29.91,NNE,29,3.0,6.0,36,0.00,,,0.00,Wunderground v.1.15,2013-03-05 19:09:00,
2013-03-05 14:14:00,51.4,23.9,29.91,East,79,3.0,6.0,34,0.00,,,0.00,Wunderground v.1.15,2013-03-05 19:14:00,
2013-03-05 14:19:00,50.6,22.5,29.90,East,82,4.0,4.0,33,0.00,,,0.00,Wunderground v.1.15,2013-03-05 19:19:00,
2013-03-05 14:24:00,50.8,23.4,29.90,NNE,25,3.0,4.0,34,0.00,,,0.00,Wunderground v.1.15,2013-03-05 19:24:00,
2013-03-05 14:29:00,50.9,24.2,29.90,NE,35,2.0,2.0,35,0.00,,,0.00,Wunderground v.1.15,2013-03-05 19:29:00,
2013-03-05 14:34:00,51.0,22.9,29.89,NNW,340,2.0,3.0,33,0.00,,,0.00,Wunderground v.1.15,2013-03-05 19:34:00,
2013-03-05 14:39:00,51.2,23.8,29.89,NE,44,1.0,1.0,34,0.00,,,0.00,Wunderground v.1.15,2013-03-05 19:39:00,
2013-03-05 14:44:00,51.6,24.8,29.88,NW,308,1.0,1.0,35,0.00,,,0.00,Wunderground v.1.15,2013-03-05 19:44:00,
2013-03-05 14:49:00,52.1,25.3,29.88,East,82,2.0,4.0,35,0.00,,,0.00,Wunderground v.1.15,2013-03-05 19:49:00,
2013-03-05 14:54:00,52.2,23.2,29.88,North,5,3.0,4.0,32,0.00,,,0.00,Wunderground v.1.15,2013-03-05 19:54:00,
2013-03-05 15:00:00,52.3,22.5,29.89,East,98,2.0,2.0,31,0.00,,,0.00,Wunderground v.1.15,2013-03-05 20:00:00,
2013-03-05 15:05:00,52.0,22.3,29.89,ENE,62,2.0,4.0,31,0.00,,,0.00,Wunderground v.1.15,2013-03-05 20:05:00,
2013-03-05 15:10:00,51.4,22.5,29.89,NE,42,4.0,4.0,32,0.00,,,0.00,Wunderground v.1.15,2013-03-05 20:10:00,
2013-03-05 15:15:00,51.1,22.2,29.88,NE,46,4.0,4.0,32,0.00,,,0.00,Wunderground v.1.15,2013-03-05 20:15:00,
2013-03-05 15:20:00,51.0,22.1,29.88,ENE,70,3.0,3.0,32,0.00,,,0.00,Wunderground v.1.15,2013-03-05 20:20:00,
2013-03-05 15:25:00,51.0,22.1,29.88,ENE,60,3.0,3.0,32,0.00,,,0.00,Wunderground v.1.15,2013-03-05 20:25:00,
2013-03-05 15:30:00,51.0,22.1,29.88,ENE,65,2.0,2.0,32,0.00,,,0.00,Wunderground v.1.15,2013-03-05 20:30:00,
2013-03-05 15:35:00,51.2,23.0,29.88,NNE,29,1.0,4.0,33,0.00,,,0.00,Wunderground v.1.15,2013-03-05 20:35:00,
2013-03-05 15:40:00,51.1,22.2,29.88,ENE,68,2.0,2.0,32,0.00,,,0.00,Wunderground v.1.15,2013-03-05 20:40:00,
2013-03-05 15:44:00,51.0,22.1,29.88,NNE,27,3.0,3.0,32,0.00,,,0.00,Wunderground v.1.15,2013-03-05 20:44:00,
2013-03-05 15:49:00,50.8,23.4,29.88,NNE,29,3.0,3.0,34,0.00,,,0.00,Wunderground v.1.15,2013-03-05 20:49:00,
2013-03-05 15:54:00,50.6,22.5,29.88,NNE,12,3.0,3.0,33,0.00,,,0.00,Wunderground v.1.15,2013-03-05 20:54:00,
2013-03-05 15:59:00,50.6,23.9,29.88,NNE,23,2.0,2.0,35,0.00,,,0.00,Wunderground v.1.15,2013-03-05 20:59:00,
2013-03-05 16:04:00,50.7,24.0,29.88,NE,54,2.0,5.0,35,0.00,,,0.00,Wunderground v.1.15,2013-03-05 21:04:00,
2013-03-05 16:09:00,50.6,23.2,29.88,ENE,59,2.0,2.0,34,0.00,,,0.00,Wunderground v.1.15,2013-03-05 21:09:00,
2013-03-05 16:14:00,50.5,23.1,29.88,ENE,61,1.0,2.0,34,0.00,,,0.00,Wunderground v.1.15,2013-03-05 21:14:00,
2013-03-05 16:19:00,50.4,23.7,29.88,East,94,0.0,1.0,35,0.00,,,0.00,Wunderground v.1.15,2013-03-05 21:19:00,
2013-03-05 16:24:00,50.3,25.0,29.87,ESE,104,1.0,1.0,37,0.00,,,0.00,Wunderground v.1.15,2013-03-05 21:24:00,
2013-03-05 16:29:00,50.2,25.5,29.87,ESE,116,2.0,4.0,38,0.00,,,0.00,Wunderground v.1.15,2013-03-05 21:29:00,
2013-03-05 16:34:00,50.0,23.4,29.87,ESE,116,3.0,5.0,35,0.00,,,0.00,Wunderground v.1.15,2013-03-05 21:34:00,
2013-03-05 16:39:00,49.8,23.2,29.86,ENE,58,4.0,4.0,35,0.00,,,0.00,Wunderground v.1.15,2013-03-05 21:39:00,
2013-03-05 16:44:00,49.6,22.3,29.87,ENE,77,4.0,4.0,34,0.00,,,0.00,Wunderground v.1.15,2013-03-05 21:44:00,
2013-03-05 16:49:00,49.5,22.9,29.87,East,100,4.0,4.0,35,0.00,,,0.00,Wunderground v.1.15,2013-03-05 21:49:00,
2013-03-05 16:54:00,49.4,22.9,29.87,East,91,4.0,4.0,35,0.00,,,0.00,Wunderground v.1.15,2013-03-05 21:54:00,
2013-03-05 17:00:00,49.3,24.1,29.87,ESE,119,3.0,4.0,37,0.00,,,0.00,Wunderground v.1.15,2013-03-05 22:00:00,
2013-03-05 17:04:00,49.2,25.9,29.86,ESE,115,3.0,5.0,40,0.00,,,0.00,Wunderground v.1.15,2013-03-05 22:04:00,
2013-03-05 17:09:00,49.1,26.4,29.86,SE,145,3.0,6.0,41,0.00,,,0.00,Wunderground v.1.15,2013-03-05 22:09:00,
2013-03-05 17:14:00,48.8,27.3,29.87,ESE,122,3.0,6.0,43,0.00,,,0.00,Wunderground v.1.15,2013-03-05 22:14:00,
2013-03-05 17:19:00,48.5,26.4,29.86,East,98,4.0,5.0,42,0.00,,,0.00,Wunderground v.1.15,2013-03-05 22:19:00,
2013-03-05 17:24:00,48.3,26.8,29.86,ESE,105,4.0,5.0,43,0.00,,,0.00,Wunderground v.1.15,2013-03-05 22:24:00,
2013-03-05 17:30:00,48.0,27.1,29.86,SE,125,3.0,3.0,44,0.00,,,0.00,Wunderground v.1.15,2013-03-05 22:30:00,
2013-03-05 17:35:00,47.9,27.0,29.86,East,100,2.0,3.0,44,0.00,,,0.00,Wunderground v.1.15,2013-03-05 22:35:00,
2013-03-05 17:40:00,47.7,26.8,29.86,East,97,3.0,3.0,44,0.00,,,0.00,Wunderground v.1.15,2013-03-05 22:40:00,
2013-03-05 17:44:00,47.6,26.2,29.86,East,85,4.0,4.0,43,0.00,,,0.00,Wunderground v.1.15,2013-03-05 22:44:00,
2013-03-05 17:49:00,47.5,26.1,29.86,SE,126,3.0,4.0,43,0.00,,,0.00,Wunderground v.1.15,2013-03-05 22:49:00,
2013-03-05 17:54:00,47.3,25.9,29.86,East,94,3.0,4.0,43,0.00,,,0.00,Wunderground v.1.15,2013-03-05 22:54:00,
2013-03-05 17:59:00,47.1,26.3,29.85,ESE,102,3.0,3.0,44,0.00,,,0.00,Wunderground v.1.15,2013-03-05 22:59:00,
2013-03-05 18:04:00,46.9,26.1,29.85,ESE,105,4.0,4.0,44,0.00,,,0.00,Wunderground v.1.15,2013-03-05 23:04:00,
2013-03-05 18:10:00,46.8,26.0,29.85,SSE,163,3.0,3.0,44,0.00,,,0.00,Wunderground v.1.15,2013-03-05 23:10:00,
2013-03-05 18:20:00,46.6,25.8,29.85,ESE,114,3.0,4.0,44,0.00,,,0.00,Wunderground v.1.15,2013-03-05 23:20:00,
2013-03-05 18:25:00,46.5,26.3,29.85,ESE,121,3.0,4.0,45,0.00,,,0.00,Wunderground v.1.15,2013-03-05 23:25:00,
2013-03-05 18:30:00,46.4,26.2,29.85,SE,131,3.0,4.0,45,0.00,,,0.00,Wunderground v.1.15,2013-03-05 23:30:00,
2013-03-05 18:35:00,46.3,26.1,29.85,East,87,4.0,4.0,45,0.00,,,0.00,Wunderground v.1.15,2013-03-05 23:35:00,
2013-03-05 18:40:00,46.1,25.9,29.85,East,98,4.0,4.0,45,0.00,,,0.00,Wunderground v.1.15,2013-03-05 23:40:00,
2013-03-05 18:45:00,46.0,25.8,29.85,SE,127,3.0,6.0,45,0.00,,,0.00,Wunderground v.1.15,2013-03-05 23:45:00,
2013-03-05 18:50:00,45.9,25.7,29.85,ESE,120,4.0,4.0,45,0.00,,,0.00,Wunderground v.1.15,2013-03-05 23:50:00,
2013-03-05 18:55:00,45.8,25.6,29.85,East,98,5.0,5.0,45,0.00,,,0.00,Wunderground v.1.15,2013-03-05 23:55:00,
2013-03-05 19:00:00,45.7,26.1,29.85,East,95,4.0,4.0,46,0.00,,,0.00,Wunderground v.1.15,2013-03-06 00:00:00,
2013-03-05 19:05:00,45.5,25.9,29.85,SE,135,4.0,4.0,46,0.00,,,0.00,Wunderground v.1.15,2013-03-06 00:05:00,
2013-03-05 19:09:00,45.4,25.8,29.85,ESE,119,4.0,4.0,46,0.00,,,0.00,Wunderground v.1.15,2013-03-06 00:09:00,
2013-03-05 19:14:00,45.3,26.2,29.85,SE,139,3.0,4.0,47,0.00,,,0.00,Wunderground v.1.15,2013-03-06 00:14:00,
2013-03-05 19:19:00,45.2,26.1,29.84,SSW,212,3.0,3.0,47,0.00,,,0.00,Wunderground v.1.15,2013-03-06 00:19:00,
2013-03-05 19:24:00,45.1,26.1,29.84,ENE,73,4.0,4.0,47,0.00,,,0.00,Wunderground v.1.15,2013-03-06 00:24:00,
2013-03-05 19:29:00,45.0,26.0,29.84,ESE,116,4.0,4.0,47,0.00,,,0.00,Wunderground v.1.15,2013-03-06 00:29:00,
2013-03-05 19:34:00,45.0,26.0,29.84,SE,125,4.0,4.0,47,0.00,,,0.00,Wunderground v.1.15,2013-03-06 00:34:00,
2013-03-05 19:39:00,44.9,26.4,29.83,ESE,105,4.0,4.0,48,0.00,,,0.00,Wunderground v.1.15,2013-03-06 00:39:00,
2013-03-05 19:44:00,44.8,26.8,29.83,SE,126,3.0,4.0,49,0.00,,,0.00,Wunderground v.1.15,2013-03-06 00:44:00,
2013-03-05 19:49:00,44.7,26.7,29.83,ESE,107,2.0,2.0,49,0.00,,,0.00,Wunderground v.1.15,2013-03-06 00:49:00,
2013-03-05 19:54:00,44.5,27.0,29.82,ESE,105,3.0,3.0,50,0.00,,,0.00,Wunderground v.1.15,2013-03-06 00:54:00,
2013-03-05 19:59:00,44.4,27.4,29.82,ESE,118,4.0,10.0,51,0.00,,,0.00,Wunderground v.1.15,2013-03-06 00:59:00,
2013-03-05 20:04:00,44.2,27.7,29.82,East,84,6.0,10.0,52,0.00,,,0.00,Wunderground v.1.15,2013-03-06 01:04:00,
2013-03-05 20:09:00,43.9,27.9,29.81,NE,55,5.0,5.0,53,0.00,,,0.00,Wunderground v.1.15,2013-03-06 01:09:00,
2013-03-05 20:14:00,43.6,28.0,29.81,NE,51,5.0,6.0,54,0.00,,,0.00,Wunderground v.1.15,2013-03-06 01:14:00,
2013-03-05 20:19:00,43.4,27.8,29.80,ENE,59,7.0,9.0,54,0.00,,,0.00,Wunderground v.1.15,2013-03-06 01:19:00,
2013-03-05 20:24:00,43.3,27.3,29.80,ENE,73,7.0,9.0,53,0.00,,,0.00,Wunderground v.1.15,2013-03-06 01:24:00,
2013-03-05 20:29:00,43.3,27.3,29.80,ENE,65,6.0,8.0,53,0.00,,,0.00,Wunderground v.1.15,2013-03-06 01:29:00,
2013-03-05 20:35:00,43.3,27.8,29.80,NE,51,6.0,8.0,54,0.00,,,0.00,Wunderground v.1.15,2013-03-06 01:35:00,
2013-03-05 20:44:00,43.1,28.5,29.80,ENE,72,5.0,9.0,56,0.00,,,0.00,Wunderground v.1.15,2013-03-06 01:44:00,
2013-03-05 20:50:00,42.4,29.5,29.81,ENE,63,7.0,7.0,60,0.00,,,0.00,Wunderground v.1.15,2013-03-06 01:50:00,
2013-03-05 20:55:00,41.9,29.8,29.81,ENE,73,8.0,8.0,62,0.00,,,0.00,Wunderground v.1.15,2013-03-06 01:55:00,
2013-03-05 21:00:00,41.4,29.7,29.81,ENE,74,7.0,7.0,63,0.00,,,0.00,Wunderground v.1.15,2013-03-06 02:00:00,
2013-03-05 21:04:00,41.1,30.2,29.81,NE,53,7.0,7.0,65,0.00,,,0.00,Wunderground v.1.15,2013-03-06 02:04:00,
2013-03-05 21:09:00,40.7,30.6,29.82,ESE,120,6.0,6.0,67,0.00,,,0.00,Wunderground v.1.15,2013-03-06 02:09:00,
2013-03-05 21:15:00,40.4,30.7,29.83,ESE,112,4.0,6.0,68,0.00,,,0.00,Wunderground v.1.15,2013-03-06 02:15:00,
2013-03-05 21:20:00,39.9,30.9,29.82,East,84,4.0,5.0,70,0.00,,,0.00,Wunderground v.1.15,2013-03-06 02:20:00,
2013-03-05 21:25:00,39.2,31.3,29.82,ESE,105,5.0,6.0,73,0.00,,,0.00,Wunderground v.1.15,2013-03-06 02:25:00,
2013-03-05 21:30:00,38.5,31.6,29.82,NNE,20,5.0,7.0,76,0.00,,,0.00,Wunderground v.1.15,2013-03-06 02:30:00,
2013-03-05 21:34:00,37.7,31.8,29.81,ENE,70,4.0,7.0,79,0.00,,,0.00,Wunderground v.1.15,2013-03-06 02:34:00,
2013-03-05 21:40:00,36.7,31.7,29.81,NE,51,6.0,6.0,82,0.00,,,0.01,Wunderground v.1.15,2013-03-06 02:40:00,
2013-03-05 21:45:00,35.9,31.8,29.80,NE,56,5.0,6.0,85,0.08,,,0.02,Wunderground v.1.15,2013-03-06 02:45:00,
2013-03-05 21:50:00,35.2,31.7,29.81,North,8,5.0,6.0,87,0.08,,,0.02,Wunderground v.1.15,2013-03-06 02:50:00,
2013-03-05 21:55:00,34.7,31.5,29.81,NNE,23,4.0,6.0,88,0.05,,,0.02,Wunderground v.1.15,2013-03-06 02:55:00,
2013-03-05 21:59:00,34.3,31.4,29.81,NNE,29,4.0,5.0,89,0.05,,,0.03,Wunderground v.1.15,2013-03-06 02:59:00,
2013-03-05 22:05:00,33.9,31.3,29.81,NNE,31,3.0,5.0,90,0.05,,,0.03,Wunderground v.1.15,2013-03-06 03:05:00,
2013-03-05 22:15:00,33.4,31.1,29.80,NNE,25,3.0,3.0,91,0.00,,,0.03,Wunderground v.1.15,2013-03-06 03:15:00,
2013-03-05 22:20:00,33.2,31.1,29.80,North,351,2.0,2.0,92,0.00,,,0.03,Wunderground v.1.15,2013-03-06 03:20:00,
2013-03-05 22:24:00,33.0,30.9,29.80,NNE,28,2.0,2.0,92,0.00,,,0.03,Wunderground v.1.15,2013-03-06 03:24:00,
2013-03-05 22:30:00,32.9,30.8,29.80,NNE,12,2.0,2.0,92,0.00,,,0.03,Wunderground v.1.15,2013-03-06 03:30:00,
2013-03-05 22:35:00,32.8,31.0,29.80,North,6,1.0,2.0,93,0.00,,,0.03,Wunderground v.1.15,2013-03-06 03:35:00,
2013-03-05 22:45:00,32.7,30.9,29.79,NW,325,1.0,1.0,93,0.00,,,0.03,Wunderground v.1.15,2013-03-06 03:45:00,
2013-03-05 22:49:00,32.7,30.9,29.79,NNE,14,1.0,2.0,93,0.00,,,0.03,Wunderground v.1.15,2013-03-06 03:49:00,
2013-03-05 22:55:00,32.7,31.2,29.78,NNE,29,2.0,2.0,94,0.00,,,0.03,Wunderground v.1.15,2013-03-06 03:55:00,
2013-03-05 23:00:00,32.7,31.2,29.78,North,352,2.0,2.0,94,0.00,,,0.03,Wunderground v.1.15,2013-03-06 04:00:00,
2013-03-05 23:04:00,32.6,31.1,29.78,NNE,22,2.0,2.0,94,0.00,,,0.03,Wunderground v.1.15,2013-03-06 04:04:00,
2013-03-05 23:10:00,32.7,31.2,29.77,NNE,18,2.0,3.0,94,0.00,,,0.03,Wunderground v.1.15,2013-03-06 04:10:00,
2013-03-05 23:15:00,32.7,31.2,29.77,North,356,2.0,3.0,94,0.00,,,0.03,Wunderground v.1.15,2013-03-06 04:15:00,
2013-03-05 23:20:00,32.6,31.1,29.76,NE,46,3.0,3.0,94,0.00,,,0.03,Wunderground v.1.15,2013-03-06 04:20:00,
2013-03-05 23:25:00,32.6,31.1,29.76,NNE,29,4.0,5.0,94,0.00,,,0.03,Wunderground v.1.15,2013-03-06 04:25:00,
2013-03-05 23:30:00,32.6,31.3,29.76,NNE,13,4.0,5.0,95,0.00,,,0.03,Wunderground v.1.15,2013-03-06 04:30:00,
2013-03-05 23:35:00,32.5,31.2,29.75,NW,308,4.0,5.0,95,0.00,,,0.03,Wunderground v.1.15,2013-03-06 04:35:00,
2013-03-05 23:40:00,32.5,31.2,29.75,NNE,18,4.0,4.0,95,0.00,,,0.03,Wunderground v.1.15,2013-03-06 04:40:00,
2013-03-05 23:45:00,32.5,31.2,29.75,NNW,340,4.0,4.0,95,0.00,,,0.03,Wunderground v.1.15,2013-03-06 04:45:00,
2013-03-05 23:50:00,32.5,31.2,29.75,NNE,25,4.0,4.0,95,0.00,,,0.03,Wunderground v.1.15,2013-03-06 04:50:00,